{"data":{"norad_id":59336,"intl_designator":"2024-057S","name":"STARLINK-31596","alt_names":[],"object_type":"PAYLOAD","status":"ACTIVE","operator":null,"country":"US","launch_date":"2024-03-25","launch_site_code":"AFETR","launch_vehicle":null,"mission":null,"orbit_class":"UNKNOWN","rcs_meters":null,"size_class":null,"mass_kg":null,"dimensions":null,"purposes":["comms"],"wikipedia_slug":null,"has_3d_model":false,"image_url":null,"decayed_at":null,"tle_current":{"epoch":"2026-05-25T04:47:51.221760Z","epoch_age_seconds":61282,"freshness":"FRESH","line1":"1 59336U 24057S   26145.19989840  .00000802  00000+0  38665-4 0  9991","line2":"2 59336  43.0004 114.6951 0001055 267.2495  92.8236 15.27578777121541","mean_motion":15.27578777,"eccentricity":0.0001055,"inclination_deg":43.0004,"raan_deg":114.6951,"arg_perigee_deg":267.2495,"mean_anomaly_deg":92.8236,"bstar":3.8665e-5,"rev_number":12154,"period_min":94.266824184871,"perigee_km":482.32890262458,"apogee_km":483.77661366355,"semimajor_km":6861.1897581441,"source":"CELESTRAK","updated_at":"2026-05-25T13:38:18.906087Z"}}}